Regional Weather Roundup
Issued by NWS

Home | Current Version | Previous Version | Text Only | Print | Product List | Glossary On
Versions: 1 2 3 4 5 6 7 8 9 10 11 12 13 14 15 16 17 18 19 20 21 22 23 24 25 26 27 28 29 30 31 32 33 34 35 36 37 38 39 40 41 42 43 44 45 46 47 48 49 50
000
ASUS43 KLOT 250508
RWRIL

ILLINOIS REGIONAL WEATHER ROUNDUP
NATIONAL WEATHER SERVICE CHICAGO/ROMEOVILLE IL
1200 AM CDT WED MAY 25 2016

NOTE: "FAIR" INDICATES FEW OR NO CLOUDS BELOW 12,000 FEET WITH NO
SIGNIFICANT WEATHER AND/OR OBSTRUCTIONS TO VISIBILITY.

* THESE STATIONS ARE NOT UNDER NWS QUALITY CONTROL. THEY ALSO MAY NOT
  REPORT WEATHER SUCH AS PRECIPITATION OR FOG.

ILZ001-002-007-009-015-016-024-250600-
NORTHWEST ILLINOIS

CITY           SKY/WX    TMP DP  RH WIND       PRES   REMARKS
MOLINE         CLEAR     72  62  71 S5        29.93S
STERLING*      CLOUDY    70  61  73 CALM      29.95S
SAVANNA*       CLEAR     68  62  82 SE6       29.94S
$$

ILZ003-004-008-010-011-017-018-250600-
NORTH CENTRAL ILLINOIS

CITY           SKY/WX    TMP DP  RH WIND       PRES   REMARKS
ROCKFORD       MOCLDY    71  60  68 SE5       29.96F
FREEPORT*      CLOUDY    70  59  69 S8        29.95F
ROCHELLE*      CLOUDY    71  59  65 S8        29.95F
DE KALB*       CLOUDY    69  59  69 S7        29.97S
$$

ILZ005-006-012>014-019>023-250600-
NORTHEAST ILLINOIS

CITY           SKY/WX    TMP DP  RH WIND       PRES   REMARKS
CHICAGO-OHARE  CLOUDY    72  58  61 S8        29.96S
CHICAGO-MIDWAY CLOUDY    77  56  48 S8        29.97S
AURORA         CLOUDY    73  58  59 S8        29.97S
LANSING*       CLOUDY    71  56  59 S10       30.00R
JOLIET*        MOCLDY    74  62  66 S6        29.98S
WAUKEGAN       CLOUDY    68  57  68 NW5       29.96R
DUPAGE AIRPORT CLOUDY    70  57  63 S8        29.96F
KANKAKEE*      CLOUDY   N/A N/A N/A S8        30.01R
WHEELING       CLOUDY    75  57  53 S8        29.97S
MORRIS*        MOCLDY    73  59  62 S5        29.97S
ROMEOVILLE*    MOCLDY    72  58  60 S9        29.98S
NORTHERLY ISL    N/A     77  54  44 S13         N/A
NORTHERLY ISL    N/A     77  54  44 S13         N/A
$$

LMZ740>746-250600-
SOUTHERN LAKE MICHIGAN

STATION/POSITION SKY/WX   TEMP    WIND        PRES    VSBY  WAVE
                          AIR SEA DIR/SP/G                  HT/PER
                          (F)     (DEG/KT/KT) (MB)    (MI)  (FT/S)
SOUTHERN BUOY              61 49  150/  6/  8 1014.5F         0
WILMETTE HARBOR            68 57  220/  8/ 10   N/A           1
HARRISON CRIB              77     200/ 18/ 20   N/A
BURNHAM HARBOR             76     190/ 11/ 14   N/A
CALUMET HARBOR             77     180/  8/ 12 1014.6F
BURNS HARBOR               75     180/  9/ 13 1015.9S
MICHIGAN CITY              76     160/ 12/ 16   N/A
MICHIGAN CITY 6N           68 57  200/ 10/ 12   N/A           1
ST. JOSEPH                 65 59  190/  8/ 10   N/A           1/ 2
$$

ILZ025>027-034>036-040-047-049-050-058-095>099-250600-
WEST-CENTRAL ILLINOIS

CITY           SKY/WX    TMP DP  RH WIND       PRES   REMARKS
QUINCY         CLOUDY    66  62  87 S8        29.97R
GALESBURG*     CLOUDY    67  60  77 CALM      29.95S
MACOMB*        CLOUDY    67  63  85 S6        29.98S
JACKSONVILLE*  CLOUDY    69  62  77 S8        29.99R
PITTSFIELD*    CLOUDY    67  63  87 S5        29.99R
$$

ILZ028>032-037-038-041>044-048-051>054-059>061-250600-
CENTRAL ILLINOIS

CITY           SKY/WX    TMP DP  RH WIND       PRES   REMARKS
PONTIAC        CLOUDY    74  64  69 S12       29.99F
BLOOMINGTON    CLOUDY    71  64  78 S13       30.01S
DECATUR        PTCLDY    70  62  76 S9        30.01S
PEORIA         CLOUDY    73  62  68 S7        29.97S
LACON*         CLOUDY    72  61  69 CALM      29.96R
LINCOLN*       PTCLDY    72  65  80 S9        29.99S
SPRINGFIELD    MOCLDY    71  63  75 S10       29.99S
TAYLORVILLE    CLOUDY    67  61  83 S5        30.00F
$$

ILZ033-039-045-046-055>057-062-063-250600-
EAST-CENTRAL ILLINOIS

CITY           SKY/WX    TMP DP  RH WIND       PRES   REMARKS
CHAMPAIGN      CLOUDY    70  58  65 S9        30.01F
RANTOUL*       MOCLDY    71  60  67 S6        30.01F
MATTOON        CLOUDY    69  57  65 S7        30.01S
PARIS*         PTCLDY    67  58  72 S3        30.03F
$$

ILZ079-100>102-250600-
SOUTHWEST ILLINOIS

CITY           SKY/WX    TMP DP  RH WIND       PRES   REMARKS
ALTON          CLOUDY    64  61  91 SE5       30.00S
CAHOKIA*       CLOUDY    66  62  87 S5        30.00F
SPARTA*        CLOUDY    64  64  97 S5        30.03F
$$

ILZ064>066-069>071-074>076-080>082-084>086-088>090-092>094-250600-
SOUTH-CENTRAL ILLINOIS

CITY           SKY/WX    TMP DP  RH WIND       PRES   REMARKS
CARBONDALE     CLOUDY    64  62  93 S3        30.03F
CAIRO*         CLOUDY    66  64  91 CALM      30.03F
EFFINGHAM*     PTCLDY    68  63  84 CALM      30.03F
MARION         CLOUDY    68  63  83 CALM      30.04F
MT. VERNON     MOCLDY    64  59  82 SW3       30.04S
CENTRALIA*     CLOUDY    65  64  98 S5        30.01F
SALEM*         PTCLDY    67  64  87 CALM      30.02S
METROPOLIS*    MOCLDY    66  65  97 CALM      30.04S
$$

ILZ067-068-072-073-078-083-087-091-250600-
SOUTHEAST ILLINOIS

CITY           SKY/WX    TMP DP  RH WIND       PRES   REMARKS
LAWRENCEVILLE  CLOUDY    70  60  70 S6        30.04S
FLORA*         PTCLDY    67  64  88 S5        30.02F
FAIRFIELD*     PTCLDY    67  63  86 S3        30.02F
HARRISBURG*    CLEAR     65  62  90 CALM      30.04S
ROBINSON*      PTCLDY    65  59  79 S5        30.04F
CARMI*         CLEAR     64  62  93 CALM      30.03F
$$

ABBREVIATIONS USED IN REMARKS
   TC - TEMPERATURE IN CELSIUS
  WCI - WIND CHILL INDEX
   HX - HEAT INDEX
  VSB - VISIBILITY
$$




USA.gov is the U.S. government's official web portal to all federal, state and local government web resources and services.